Weather History for KDAL - November, 2011

Change the Weather History Date:

Wednesday, November 16, 2011

  Actual Average Record
Temperature  
Mean Temperature 56 °F -  
Max Temperature 64 °F 64 °F 79 °F (1999)
Min Temperature 46 °F 47 °F 28 °F (2014)
Degree Days  
Heating Degree Days 9    
Growing Degree Days 6 (Base 50)    
Moisture  
Dew Point 47 °F    
Average Humidity 66    
Maximum Humidity 94    
Minimum Humidity 34    
Precipitation  
Precipitation 0.00 in - - ()
Sea Level Pressure  
Sea Level Pressure 29.95 in    
Wind  
Wind Speed 9 mph (North)    
Max Wind Speed 21 mph    
Max Gust Speed 29 mph    
Visibility 9 miles    
Events      
Averages and records for this station are not official NWS values.
T = Trace of Precipitation, MM = Missing Value Source: NWS Daily Summary

Daily Weather History Graph

Daily Weather History Graph

Search for Another Location

Airport or City:

Trip Planner

Search our weather history database for the weather conditions in past years. The results will help you decide how hot, cold, wet, or windy it might be!

Date:

Astronomy

Nov. 16, 2011 Rise Set
Actual Time 6:58 AM CST 5:25 PM CST
Civil Twilight 6:32 AM CST 5:51 PM CST
Nautical Twilight 6:02 AM CST 6:21 PM CST
Astronomical Twilight 5:33 AM CST 6:50 PM CST
Moon 10:37 PM CST (11/16) 11:36 AM CST (11/16)
Length of Visible Light 11h 19m
Length of Day
10h 27m
Waning Gibbous, 70% of the Moon is Illuminated
Nov 16
Waning Gibbous
Nov 18
Last Quarter
Nov 25
New
Dec 2
First Quarter
Dec 10
Full

Hourly Weather History & Observations

Time (CST) Temp. Dew Point Humidity Pressure Visibility Wind Dir Wind Speed Gust Speed Precip Events Conditions
12:53 AM 62.1 °F 55.9 °F 80% 29.73 in 10.0 mi NNW 5.8 mph - N/A   Mostly Cloudy
1:53 AM 60.8 °F 55.4 °F 82% 29.74 in 10.0 mi NNW 4.6 mph - N/A   Scattered Clouds
2:53 AM 59.0 °F 55.0 °F 87% 29.73 in 10.0 mi NNW 4.6 mph - N/A   Partly Cloudy
3:32 AM 59.0 °F 55.4 °F 88% 29.75 in 10.0 mi NNW 8.1 mph - N/A   Mostly Cloudy
3:53 AM 60.1 °F 55.9 °F 86% 29.74 in 10.0 mi NNW 6.9 mph - N/A   Overcast
4:53 AM 61.0 °F 57.9 °F 90% 29.77 in 9.0 mi North 6.9 mph - N/A   Overcast
5:08 AM 60.8 °F 57.2 °F 88% 29.78 in 8.0 mi North 5.8 mph - N/A   Overcast
5:20 AM 60.8 °F 57.2 °F 88% 29.78 in 7.0 mi NNW 6.9 mph - N/A   Overcast
5:49 AM 62.6 °F 59.0 °F 88% 29.79 in 6.0 mi NNW 4.6 mph - N/A   Overcast
5:53 AM 62.1 °F 59.0 °F 90% 29.78 in 6.0 mi NNW 6.9 mph - N/A   Overcast
6:26 AM 62.6 °F 60.8 °F 94% 29.81 in 5.0 mi NNW 6.9 mph - N/A   Overcast
6:53 AM 63.0 °F 59.0 °F 87% 29.82 in 4.0 mi NNW 6.9 mph - N/A   Overcast
7:53 AM 63.0 °F 57.9 °F 84% 29.86 in 6.0 mi North 11.5 mph - N/A   Mostly Cloudy
8:01 AM 62.6 °F 57.2 °F 82% 29.87 in 10.0 mi NNW 11.5 mph - N/A   Mostly Cloudy
8:53 AM 61.0 °F 54.0 °F 78% 29.89 in 10.0 mi NNW 9.2 mph - N/A   Overcast
9:53 AM 60.8 °F 50.0 °F 68% 29.93 in 10.0 mi NNW 12.7 mph - N/A   Overcast
10:53 AM 62.1 °F 48.0 °F 60% 29.93 in 10.0 mi North 8.1 mph - N/A   Overcast
11:53 AM 63.0 °F 48.0 °F 58% 29.94 in 10.0 mi NNW 11.5 mph - N/A   Overcast
12:49 PM 64.4 °F 46.4 °F 52% 29.95 in 10.0 mi NNW 12.7 mph - N/A   Mostly Cloudy
12:53 PM 64.9 °F 48.0 °F 54% 29.93 in 10.0 mi North 12.7 mph - N/A   Mostly Cloudy
1:17 PM 64.4 °F 46.4 °F 52% 29.95 in 10.0 mi North 13.8 mph - N/A   Overcast
1:53 PM 64.0 °F 46.9 °F 54% 29.95 in 10.0 mi North 16.1 mph 23.0 mph N/A   Mostly Cloudy
2:09 PM 64.4 °F 44.6 °F 49% 29.97 in 10.0 mi North 18.4 mph 24.2 mph N/A   Mostly Cloudy
2:53 PM 60.1 °F 44.1 °F 55% 29.99 in 10.0 mi North 19.6 mph 26.5 mph N/A   Mostly Cloudy
2:59 PM 60.8 °F 44.6 °F 55% 30.00 in 10.0 mi North 17.3 mph 26.5 mph N/A   Mostly Cloudy
3:53 PM 57.0 °F 43.0 °F 59% 30.03 in 10.0 mi North 17.3 mph 28.8 mph N/A   Overcast
4:53 PM 55.9 °F 41.0 °F 57% 30.08 in 10.0 mi North 16.1 mph 24.2 mph N/A   Mostly Cloudy
5:29 PM 55.4 °F 39.2 °F 54% 30.12 in 10.0 mi North 16.1 mph 25.3 mph N/A   Mostly Cloudy
5:53 PM 55.9 °F 39.0 °F 53% 30.13 in 10.0 mi North 20.7 mph 26.5 mph N/A   Overcast
6:53 PM 54.0 °F 36.0 °F 51% 30.18 in 10.0 mi NNE 16.1 mph 26.5 mph N/A   Overcast
7:53 PM 54.0 °F 33.1 °F 45% 30.21 in 10.0 mi North 17.3 mph 23.0 mph N/A   Overcast
8:53 PM 53.1 °F 28.9 °F 40% 30.27 in 10.0 mi NNE 13.8 mph - N/A   Overcast
9:53 PM 53.1 °F 25.0 °F 34% 30.30 in 10.0 mi NNE 16.1 mph 26.5 mph N/A   Mostly Cloudy
10:53 PM 48.9 °F 24.1 °F 38% 30.33 in 10.0 mi North 13.8 mph - N/A   Partly Cloudy
11:53 PM 46.9 °F 24.1 °F 41% 30.35 in 10.0 mi North 12.7 mph - N/A   Partly Cloudy